San Bernardino, CA

12:58 PM PST on December 10, 2019 (GMT -0800)
San Bernardino International

Weather History for KSBD - May, 2019

Change the Weather History Date:

Monday, May 6, 2019

  Actual Average Record
Temperature  
Mean Temperature 62 °F -  
Max Temperature 69 °F 76 °F 95 °F (2018)
Min Temperature 55 °F 51 °F 49 °F (2017)
Degree Days  
Heating Degree Days 3    
Growing Degree Days 12 (Base 50)    
Moisture  
Dew Point 47 °F    
Average Humidity 63    
Maximum Humidity 83    
Minimum Humidity 38    
Precipitation  
Precipitation 0.00 in - - ()
Sea Level Pressure  
Sea Level Pressure 29.92 in    
Wind  
Wind Speed 3 mph (WSW)    
Max Wind Speed 18 mph    
Max Gust Speed -    
Visibility 9 miles    
Events Rain    
Averages and records for this station are not official NWS values.
T = Trace of Precipitation, MM = Missing Value Source: NWS Daily Summary

Daily Weather History Graph

Daily Weather History Graph

Search for Another Location

Airport or City:

Astronomy

May. 06, 2019 Rise Set
Actual Time 5:54 AM PDT 7:36 PM PDT
Civil Twilight 5:27 AM PDT 8:03 PM PDT
Nautical Twilight 4:55 AM PDT 8:36 PM PDT
Astronomical Twilight 4:20 AM PDT 9:11 PM PDT
Moon 7:21 AM PDT (5/6) 9:36 PM PDT (5/6)
Length of Visible Light 14h 35m
Length of Day
13h 41m
Waxing Crescent, 4% of the Moon is Illuminated
May 6
Waxing Crescent
May 11
First Quarter
May 18
Full
May 26
Last Quarter
Jun 3
New

Hourly Weather History & Observations

Time (PDT) Temp. Dew Point Humidity Pressure Visibility Wind Dir Wind Speed Gust Speed Precip Events Conditions
12:00 AM 58.8 °F 45.0 °F 60% 29.90 in 10.0 mi Calm Calm - N/A   Overcast
12:20 AM 59.2 °F 45.1 °F 60% 29.89 in 10.0 mi South 3.5 mph - N/A   Overcast
12:40 AM 59.0 °F 44.1 °F 58% 29.89 in 10.0 mi SSW 3.5 mph - N/A   Overcast
1:00 AM 59.0 °F 43.5 °F 56% 29.89 in 10.0 mi Calm Calm - N/A   Overcast
1:20 AM 59.2 °F 43.3 °F 56% 29.89 in 10.0 mi Calm Calm - N/A   Overcast
1:40 AM 59.2 °F 44.1 °F 57% 29.89 in 10.0 mi WSW 3.5 mph - N/A   Overcast
2:00 AM 59.0 °F 45.7 °F 61% 29.89 in 10.0 mi SW 3.5 mph - N/A   Overcast
2:20 AM 58.3 °F 46.6 °F 65% 29.88 in 10.0 mi WSW 6.9 mph - N/A   Overcast
2:40 AM 58.1 °F 46.4 °F 65% 29.88 in 10.0 mi WSW 5.8 mph - N/A   Overcast
3:00 AM 57.6 °F 46.9 °F 68% 29.89 in 10.0 mi West 5.8 mph - N/A   Overcast
3:20 AM 57.4 °F 47.5 °F 70% 29.89 in 10.0 mi WSW 4.6 mph - N/A   Overcast
3:40 AM 57.0 °F 48.9 °F 74% 29.89 in 5.0 mi West 6.9 mph - N/A Rain Rain
4:00 AM 56.1 °F 50.0 °F 80% 29.89 in 7.0 mi WSW 4.6 mph - N/A   Overcast
4:20 AM 55.6 °F 50.2 °F 82% 29.89 in 7.0 mi Calm Calm - N/A   Overcast
4:40 AM 55.6 °F 50.4 °F 83% 29.89 in 10.0 mi Calm Calm - N/A   Overcast
5:00 AM 55.8 °F 50.4 °F 82% 29.89 in 10.0 mi Calm Calm - N/A   Overcast
5:20 AM 55.9 °F 50.2 °F 81% 29.88 in 10.0 mi Calm Calm - N/A   Overcast
5:40 AM 55.9 °F 50.0 °F 80% 29.89 in 10.0 mi Calm Calm - N/A   Overcast
7:00 AM 57.2 °F 48.2 °F 72% 29.91 in 7.0 mi ENE 3.5 mph - N/A   Mostly Cloudy
7:45 AM 57.2 °F 48.2 °F 72% 29.91 in 7.0 mi Calm Calm - N/A   Mostly Cloudy
8:48 AM 60.8 °F 46.4 °F 59% 29.92 in 7.0 mi Calm Calm - N/A   Overcast
9:46 AM 62.6 °F 48.2 °F 59% 29.93 in 7.0 mi Calm Calm - N/A   Overcast
10:50 AM 64.4 °F 44.6 °F 49% 29.92 in 7.0 mi West 3.5 mph - N/A   Overcast
11:50 AM 64.4 °F 44.6 °F 49% 29.92 in 7.0 mi West 6.9 mph - N/A   Overcast
12:50 PM 64.4 °F 42.8 °F 45% 29.92 in 7.0 mi Calm Calm - N/A   Overcast
3:50 PM 66.2 °F 42.8 °F 43% 29.91 in 7.0 mi Calm Calm - N/A   Overcast
4:50 PM 69.8 °F 42.8 °F 38% 29.89 in 7.0 mi West 18.4 mph - N/A   Mostly Cloudy
5:50 PM 66.2 °F 42.8 °F 43% 29.90 in 7.0 mi WSW 15.0 mph - N/A   Mostly Cloudy
6:59 PM 64.4 °F 44.6 °F 49% 29.91 in 7.0 mi WSW 13.8 mph - N/A   Mostly Cloudy
7:50 PM 62.6 °F 46.4 °F 55% 29.93 in 7.0 mi WSW 11.5 mph - N/A   Mostly Cloudy
8:55 PM 60.8 °F 46.4 °F 59% 29.96 in 7.0 mi WSW 10.4 mph - N/A   Mostly Cloudy
9:40 PM 59.9 °F 46.8 °F 62% 29.97 in 10.0 mi WSW 6.9 mph - N/A   Overcast
10:00 PM 59.4 °F 47.3 °F 64% 29.98 in 10.0 mi WSW 5.8 mph - N/A   Mostly Cloudy
10:20 PM 59.0 °F 48.0 °F 67% 29.98 in 10.0 mi WSW 5.8 mph - N/A   Mostly Cloudy
10:40 PM 58.5 °F 47.7 °F 67% 29.98 in 10.0 mi West 5.8 mph - N/A   Mostly Cloudy
11:00 PM 57.9 °F 47.5 °F 68% 29.98 in 10.0 mi WSW 4.6 mph - N/A   Overcast
11:20 PM 58.1 °F 47.3 °F 67% 29.98 in 10.0 mi WSW 5.8 mph - N/A   Overcast
11:40 PM 58.6 °F 47.3 °F 66% 29.98 in 10.0 mi WSW 4.6 mph - N/A   Overcast